Home   Weather   Cloppenburg   Past weeks

Flag for Germany Past Weather in Cloppenburg, Lower Saxony, Germany — Yesterday and Last 2 Weeks

Now
72 °F

Mild.


Feels Like: 77 °F
Forecast: 57 / 80 °F
Wind: 3 mph from Southeast

Location: Meppen-Mil

Current Time: Jul 21, 2017 at 7:07:15 pm

Latest Report: Jul 21, 2017 at 6:20 pm


Visibility: 6 mi

Pressure: 29.92 "Hg

Humidity: 41%

Dew Point: 46 °F

Location of CloppenburgLocation

Past Weather in Cloppenburg — Graph

°F

Cloppenburg Temperature Yesterday

Maximum temperature yesterday: 77 °F (at 4:20 pm)
Minimum temperature yesterday: 64 °F (at 2:20 am)
Average temperature yesterday: 68 °F

High & Low Weather Summary for the Past Weeks

 TemperatureHumidityPressure
High90 °F (Jul 19, 5:20 pm)100% (Jul 9, 6:20 am)30.21 "Hg (Jul 9, 6:20 am)
Low48 °F (Jul 9, 5:20 am)41% (Jul 19, 5:20 pm)29.71 "Hg (Jul 12, 11:20 am)
Average64 °F76%29.98 "Hg
* Reported Jul 6 5:20 pm — Jul 21 5:20 pm, Cloppenburg. Weather by CustomWeather, © 2017

Note: Actual official high and low records may vary slightly from our data, if they occured in-between our weather recording intervals... More about our weather records

Advertising

Cloppenburg Weather History for the Previous 24 Hours

Scroll right to see more
 ConditionsComfort  
Time TempWeatherWind HumidityBarometerVisibility
5:20 pm
Fri, Jul 21
72 °FMild.5 mph41%29.92 "Hg6 mi
4:20 pm72 °FMild.5 mph44%29.95 "Hg5 mi
3:20 pm72 °FMild.5 mph41%29.95 "Hg6 mi
2:20 pm72 °FMild.5 mph44%29.95 "HgN/A
1:20 pm70 °FMild.2 mph50%29.98 "HgN/A
12:20 pm68 °FMild.3 mph56%29.98 "HgN/A
11:20 am68 °FPassing clouds.6 mph56%29.98 "HgN/A
10:20 am64 °FPassing clouds.2 mph68%29.98 "HgN/A
9:20 am64 °FScattered clouds.2 mph73%29.98 "HgN/A
8:20 am61 °FPartly sunny.2 mph83%29.98 "HgN/A
7:20 am57 °FPartly sunny.1 mph94%29.95 "HgN/A
6:20 am54 °FPassing clouds.1 mph94%29.95 "HgN/A
5:20 am55 °FCool.2 mph94%29.95 "Hg3 mi
4:20 am55 °FCool.1 mph94%29.92 "Hg1 mi
3:20 am57 °FCool.1 mph94%29.92 "Hg6 mi
2:20 am59 °FCool.2 mph88%29.92 "HgN/A
1:20 am61 °FCool.2 mph88%29.92 "HgN/A
12:20 am63 °FMild.3 mph83%29.89 "HgN/A
11:20 pm
Thu, Jul 20
64 °FMild.5 mph83%29.89 "HgN/A
10:20 pm66 °FMild.5 mph83%29.86 "HgN/A
9:20 pm70 °FMild.9 mph73%29.83 "HgN/A
8:20 pm72 °FMild.No wind73%29.77 "HgN/A
7:20 pm75 °FMild.3 mph61%29.77 "Hg4 mi
Weather by CustomWeather, © 2017

See weather overviewHow to use our weather pages